Grand Marais, MN

11:05 AM CST on December 03, 2016 (GMT -0600)
Grand Marais

Weather History for KGNA - March, 2014

Change the Weather History Date:

Sunday, March 2, 2014

  Actual Average (KCKC) Record (KCKC)
Temperature  
Mean Temperature -6 °F -  
Max Temperature 8 °F 21 °F 39 °F (2001)
Min Temperature -20 °F 6 °F -25 °F (2014)
Degree Days  
Heating Degree Days 71    
Moisture  
Dew Point -18 °F    
Average Humidity 52    
Maximum Humidity 68    
Minimum Humidity 38    
Precipitation  
Precipitation 0.00 in - - ()
Sea Level Pressure  
Sea Level Pressure 30.48 in    
Wind  
Wind Speed 8 mph (West)    
Max Wind Speed 12 mph    
Max Gust Speed 22 mph    
Averages and records for this station are not official NWS values.
T = Trace of Precipitation, MM = Missing Value Source: NWS Daily Summary

Daily Weather History Graph

Daily Weather History Graph

Search for Another Location

Airport or City:

Trip Planner

Search our weather history database for the weather conditions in past years. The results will help you decide how hot, cold, wet, or windy it might be!

Date:

Astronomy

Mar. 02, 2014 Rise Set
Actual Time 6:40 AM CST 5:47 PM CST
Civil Twilight 6:09 AM CST 6:18 PM CST
Nautical Twilight 5:33 AM CST 6:54 PM CST
Astronomical Twilight 4:57 AM CST 7:30 PM CST
Moon 7:02 AM CST (3/2) 7:55 PM CST (3/2)
Length of Visible Light 12h 09m
Length of Day
11h 07m
Waxing Crescent, 3% of the Moon is Illuminated
Mar 2
Waxing Crescent
Mar 8
First Quarter
Mar 16
Full
Mar 23
Last Quarter
Mar 30
New

Hourly Weather History & Observations

Time (CST) Temp. Windchill Dew Point Humidity Pressure Visibility Wind Dir Wind Speed Gust Speed Precip Events Conditions
12:56 AM -11.0 °F -29.9 °F -22.0 °F 58% 30.49 in - SSW 10.4 mph 16.1 mph N/A   Unknown
1:56 AM -11.9 °F -31.0 °F -24.0 °F 55% 30.51 in - SW 10.4 mph 21.9 mph N/A   Unknown
2:56 AM -15.0 °F -32.4 °F -25.1 °F 61% 30.52 in - West 8.1 mph - N/A   Unknown
3:56 AM -17.0 °F -33.4 °F -27.0 °F 60% 30.52 in - West 6.9 mph - N/A   Unknown
4:56 AM -18.0 °F -34.7 °F -29.0 °F 57% 30.52 in - West 6.9 mph - N/A   Unknown
5:56 AM -18.9 °F -34.0 °F -29.0 °F 60% 30.52 in - West 5.8 mph - N/A   Unknown
6:56 AM -20.0 °F -35.3 °F -29.9 °F 60% 30.52 in - West 5.8 mph - N/A   Unknown
7:56 AM -14.1 °F -29.9 °F -22.0 °F 68% 30.50 in - West 6.9 mph - N/A   Unknown
8:56 AM -7.1 °F -22.8 °F -17.0 °F 62% 30.48 in - West 8.1 mph - N/A   Unknown
9:56 AM -2.0 °F -19.6 °F -14.1 °F 57% 30.46 in - WSW 11.5 mph 18.4 mph N/A   Unknown
10:56 AM 3.0 °F -9.3 °F -16.1 °F 41% 30.46 in - Variable 6.9 mph 18.4 mph N/A   Unknown
11:56 AM 6.1 °F -6.8 °F -15.0 °F 38% 30.45 in - West 8.1 mph 21.9 mph N/A   Unknown
12:56 PM 6.1 °F -7.8 °F -14.1 °F 39% 30.43 in - NW 9.2 mph 19.6 mph N/A   Unknown
1:56 PM 7.0 °F -1.7 °F -14.1 °F 38% 30.42 in - Variable 4.6 mph 18.4 mph N/A   Unknown
2:56 PM 8.1 °F -7.0 °F -13.0 °F 38% 30.42 in - WNW 11.5 mph 19.6 mph N/A   Unknown
3:56 PM 8.1 °F -0.5 °F -11.9 °F 40% 30.43 in - Variable 4.6 mph 16.1 mph N/A   Unknown
4:56 PM 6.1 °F -7.8 °F -13.0 °F 41% 30.45 in - WNW 9.2 mph - N/A   Unknown
5:56 PM 3.0 °F -8.0 °F -13.0 °F 47% 30.48 in - WNW 5.8 mph - N/A   Unknown
6:56 PM -0.0 °F -7.9 °F -14.1 °F 52% 30.51 in - Variable 3.5 mph - N/A   Unknown
7:56 PM -0.9 °F -11.0 °F -15.0 °F 52% 30.50 in - Variable 4.6 mph - N/A   Unknown
8:56 PM -0.0 °F -14.2 °F -15.0 °F 49% 30.48 in - NNW 8.1 mph 18.4 mph N/A   Unknown
9:56 PM -0.0 °F -9.9 °F -11.9 °F 57% 30.51 in - Variable 4.6 mph - N/A   Unknown
10:56 PM -0.9 °F -11.0 °F -14.1 °F 54% 30.51 in - Variable 4.6 mph - N/A   Unknown
11:56 PM -0.9 °F - -15.0 °F 52% 30.51 in - Calm Calm - N/A   Unknown